Terminal Aerodrome Forecast
Issued by NWS Honolulu, HI

Home | Current Version | Previous Version | Text Only | Print | Product List | Glossary On
Versions: 1 2 3 4 5 6 7 8 9 10 11 12 13 14 15 16 17 18 19 20 21 22 23 24 25 26
000
FTPA31 PHFO 281737
TAFHNL
TAF
PHNL 281737Z 2818/2924 05011G16KT P6SM FEW025 SCT045
     FM281900 06015G25KT P6SM FEW025 SCT045
     FM290500 05012KT P6SM FEW025 SCT045
     FM291900 05015G25KT P6SM FEW025 SCT045=

USA.gov is the U.S. government's official web portal to all federal, state and local government web resources and services.